DELTA 1 DEB, 14480

Orbit data source: Space-Track

DELTA 1 DEB, 14480 is space debris in SSO originally from a launch on Tue, 06 Nov 1973 UTC launched from the Air Force Western Test Range (AFWTR). Debris objects in space refer to the collection of defunct objects orbiting the Earth. Examples of debris include non-operational satellites, rocket bodies, and fragments generated from explosions, collisions, or faulty payload assembly.

Loading next visibility...
Identifier
14480, 1973-086GR
Orbit
SSO
Country
Flag of USUS
Related business
Manufacturer
Unknown
Mission
Spacecraft
Bus & Motor
Unknown
Mass
Unknown
Launch date (UTC)
1973-11-06 (52 years ago)
Launch vehicle
Unknown
Launch site
Air Force Western Test Range (AFWTR)
Object type
Payload
Rocket body
Debris
Shape & HBR
Unknown shape, 0.1 m
Radar Cross Section
Small (<0.1 m²)

Expand to show TLE details & history
Last TLE update: 11 hours ago

TLE from 11 hours ago
0 DELTA 1 DEB
1 14480U 73086GR  26033.62797749  .00045563  00000-0  21769-1 0  9995
2 14480 102.5948 183.9697 0012274 333.8423  89.7233 14.18833187 40317
Epoch: 2026-02-02T15:04Z
TLE epoch observation values (Epoch: 2026-02-02T15:04:17.255Z)
Latitude
61.13933°
Longitude
161.29514°
Altitude
839.529 km
Speed
7.439 km/s
True Right ascension
10h 40m 45s
True Declination
60° 59' 43"
Sunlit
Object was in full shadow at epoch
Visualization orbit readout
Latitude
Unknown
Longitude
Unknown
Altitude
Unknown
Speed
Unknown
Apparent Right ascension
Unknown
Apparent Declination
Unknown
Sunlit
N/A
Visualization observer readout
Local Sidereal Time
03:35:20
Azimuth
Unknown
Elevation
Unknown
Doppler factor
Unknown
Orbital elements
Apogee altitude
835.53 km
Perigee altitude
817.844 km
Semi-major axis
7,204.824 km
Eccentricity
0.00123
Inclination
102.5948°
RAAN
183.9697°
Arg. of periapsis
333.8423°
True anomaly
89.86395°
Mean anomaly
89.7233°
Eccentric anomaly
89.79362°
Mean motion
3.54902 °/min
Orbital period
101.44 mins
BSTAR
0.021769
Loading maneuver chart data...
Computing Atmospheric mass density...
Loading historical data...
Loading historical data...
Loading historical data...
Loading historical data...
Loading historical data...
Loading historical data...
Loading historical data...

Documentation

Showing up to 5 results
|